Weather Roundup
Issued by NWS

Home | Current Version | Previous Version | Text Only | Print | Product List | Glossary On
Versions: 1 2 3 4 5 6 7 8 9 10 11 12 13 14 15 16 17 18 19 20 21 22 23 24 25 26 27 28 29 30 31 32 33 34 35 36 37 38 39 40 41 42 43 44 45 46 47 48 49 50
000
NZUS93 KARX 272259
HRRWXR

CURRENT HOURLY OBSERVATIONS ACROSS
MUCH OF THE UPPER MISSISSIPPI VALLEY
NATIONAL WEATHER SERVICE LA CROSSE WI
600 PM CDT MON MAR 27 2017


...SOUTHEAST MINNESOTA...


CITY           SKY/WX    TMP DP  RH WIND       PRES   REMARKS
ROCHESTER      CLOUDY    45  40  82 N7        29.95S
ROCHESTER/MAYO CLOUDY    46  40  80 CALM      29.96S
WINONA         CLOUDY    46  37  71 N3        29.97R
AUSTIN         CLOUDY    46  39  76 NE8       29.94F
ALBERT LEA     MOSUNNY   48  37  66 NE9       29.94F
DODGE CENTER   CLOUDY    46  37  71 N8        29.95S
PRESTON        CLOUDY    44  38  81 N7        29.95R
OWATONNA       CLOUDY    50  37  62 NE6       29.95S
FARIBAULT      CLOUDY    52  39  62 NE3       29.96S
$$

...ELSEWHERE IN MINNESOTA...


CITY           SKY/WX    TMP DP  RH WIND       PRES   REMARKS
MINNEAPOLIS    MOSUNNY   56  33  42 SE7       29.94S
INTNL FALLS    SUNNY     53  25  33 NE7       29.97S
DULUTH         MOSUNNY   48  35  60 SE7       29.97R
RED WING       CLOUDY    50  36  57 CALM      29.96S
REDWOOD FALLS  SUNNY     58  36  43 VRB3      29.94S
MANKATO        NOT AVBL
WORTHINGTON    SUNNY     51  39  63 E6        29.95S
FAIRMONT       PTSUNNY   51  41  68 E6        29.95S
$$

...SOUTHWEST WISCONSIN...


CITY           SKY/WX    TMP DP  RH WIND       PRES   REMARKS
LA CROSSE      CLOUDY    48  41  76 NW7       29.95R
PRAIRIE DU CHI CLOUDY    47  45  91 NW5       29.93S
BOSCOBEL       CLOUDY    51  44  77 NW3       29.93S
LONE ROCK      CLOUDY    48  45  87 CALM      29.93S
PLATTEVILLE    CLOUDY    48  46  92 N5        29.93R
FORT MC COY    CLOUDY    46  41  82 N3        29.95S
MAUSTON-NEW LI CLOUDY    46  43  87 CALM      29.93F
VIROQUA        CLOUDY    45  44  98 CALM      29.93S
WIS DELLS      CLOUDY    47  43  86 N3        29.93S
$$

...ELSEWHERE IN WISCONSIN...


CITY           SKY/WX    TMP DP  RH WIND       PRES   REMARKS
MILWAUKEE      CLOUDY    42  36  79 E7        29.95R
MADISON        CLOUDY    47  43  86 N6        29.92S
GREEN BAY      CLOUDY    41  36  82 NE6       29.97S
EAU CLAIRE     NOT AVBL
BLACK RVR FLS  CLOUDY    46  37  68 NE8       29.94S
MEDFORD        CLOUDY    41  38  86 CALM      29.94S
WAUSAU         CLOUDY    43  37  79 N5        29.93F
WIS RAPIDS     CLOUDY    43  40  89 NE5       29.96S
MARSHFIELD     CLOUDY    43  37  79 NE5       29.93S
RICE LAKE      CLOUDY    51  37  58 CALM      29.95S
$$

...NORTHEAST IOWA...


CITY           SKY/WX    TMP DP  RH WIND       PRES   REMARKS
WATERLOO       CLOUDY    50  40  68 N7        29.93S
DUBUQUE        CLOUDY    48  44  86 NE7       29.92R
DECORAH        CLOUDY    46  43  87 NE5       29.93S
MASON CITY     CLOUDY    47  40  76 NE9       29.95F
CHARLES CITY   CLOUDY    48  45  87 VRB5      29.95R
OELWEIN        CLOUDY    48  45  87 N9        29.93S
$$

...ELSEWHERE IN IOWA...


CITY           SKY/WX    TMP DP  RH WIND       PRES   REMARKS
DES MOINES     CLOUDY    51  42  71 N7        29.93S
IOWA CITY      CLOUDY    53  45  74 N6        29.93S
FORT DODGE     CLOUDY    48  39  71 NE7       29.95S
MARSHALLTOWN   CLOUDY    49  43  80 NW6       29.92F
CEDAR RAPIDS   CLOUDY    50  46  86 N6        29.91S
$$

...NORTHERN ILLINOIS...


CITY           SKY/WX    TMP DP  RH WIND       PRES   REMARKS
CHICAGO-OHARE  CLOUDY    46  41  82 NE9       29.90S
CHICAGO-MIDWAY CLOUDY    44  41  89 NE9       29.91S
MOLINE         CLOUDY    53  45  74 N8        29.89S
ROCKFORD       CLOUDY    52  44  74 N8        29.93S
PEORIA         CLOUDY    54  51  90 N8        29.87R
$$

NOTE: "FAIR" INDICATES FEW OR NO CLOUDS BELOW 12,000 FEET WITH NO
SIGNIFICANT WEATHER AND/OR OBSTRUCTIONS TO VISIBILITY. WIND
SPEEDS ARE IN MILES-PER-HOUR.




USA.gov is the U.S. government's official web portal to all federal, state and local government web resources and services.